• In Belarus
  • List of Countries
  • For 7 days
  • Water Temperature
  • Weather Map
  • Weather Widgets
  • user-avatar
    Login

    Hourly Weather Qala i Naw

    Today, 27 February, Thursday

    Time Temperature Precipitation Wind Pressure Humidity
    00:00 +5°C° 0.1 mm 3 mps 680 mmHg 91%
    01:00 +5°C° 0.1 mm 3 mps 680 mmHg 92%
    02:00 +5°C° 0.7 mm 3 mps 680 mmHg 93%
    03:00 +5°C° 0.7 mm 2 mps 680 mmHg 93%
    04:00 +4°C° 0 mm 2 mps 680 mmHg 93%
    05:00 +4°C° 0.2 mm 2 mps 681 mmHg 94%
    06:00 +4°C° 0.2 mm 2 mps 681 mmHg 94%
    07:00 +4°C° 0.2 mm 2 mps 682 mmHg 94%
    08:00 +3°C° 0.1 mm 3 mps 682 mmHg 94%
    09:00 +3°C° 0.1 mm 3 mps 682 mmHg 94%
    10:00 +1°C° 0.1 mm 4 mps 681 mmHg 93%
    11:00 +2°C° 0.9 mm 3 mps 681 mmHg 94%
    12:00 +1°C° 0.9 mm 3 mps 681 mmHg 95%
    13:00 +1°C° 0.9 mm 3 mps 681 mmHg 96%
    14:00 +1°C° 0.3 mm 3 mps 681 mmHg 96%
    15:00 +2°C° 0.3 mm 2 mps 681 mmHg 96%
    16:00 +2°C° 0.3 mm 2 mps 681 mmHg 96%
    17:00 +3°C° 0.3 mm 2 mps 682 mmHg 96%
    18:00 +3°C° 0.3 mm 2 mps 682 mmHg 96%
    19:00 +3°C° 0.3 mm 2 mps 683 mmHg 96%
    20:00 +3°C° 0.1 mm 2 mps 683 mmHg 96%
    21:00 +3°C° 0.1 mm 2 mps 683 mmHg 96%
    22:00 +3°C° 0.1 mm 2 mps 683 mmHg 96%
    23:00 +2°C° 0.1 mm 2 mps 683 mmHg 96%

    Tomorrow, 28 February, Friday

    Time Temperature Precipitation Wind Pressure Humidity
    00:00 +2°C° 0.1 mm 2 mps 682 mmHg 96%
    01:00 +2°C° 0.1 mm 2 mps 682 mmHg 95%
    02:00 +2°C° 0 mm 2 mps 682 mmHg 95%
    03:00 +3°C° 0 mm 1 mps 682 mmHg 94%
    04:00 +3°C° 0 mm 1 mps 682 mmHg 94%
    05:00 +3°C° 0 mm 1 mps 682 mmHg 93%
    06:00 +3°C° 0 mm 1 mps 682 mmHg 92%
    07:00 +3°C° 0 mm 1 mps 682 mmHg 91%
    08:00 +3°C° 0 mm 1 mps 682 mmHg 90%
    09:00 +4°C° 0 mm 1 mps 681 mmHg 88%
    10:00 +4°C° 0 mm 1 mps 681 mmHg 86%
    11:00 +6°C° 0 mm 1 mps 681 mmHg 82%
    12:00 +7°C° 0 mm 1 mps 680 mmHg 78%
    13:00 +8°C° 0 mm 1 mps 680 mmHg 73%
    14:00 +9°C° 0 mm 1 mps 680 mmHg 72%
    15:00 +9°C° 0 mm 1 mps 680 mmHg 70%
    16:00 +10°C° 0 mm 1 mps 680 mmHg 68%
    17:00 +9°C° 0 mm 1 mps 680 mmHg 72%
    18:00 +9°C° 0 mm 1 mps 680 mmHg 75%
    19:00 +7°C° 0 mm 0 mps 680 mmHg 78%
    20:00 +8°C° 0 mm 1 mps 680 mmHg 78%
    21:00 +8°C° 0 mm 1 mps 680 mmHg 77%
    22:00 +8°C° 0 mm 1 mps 680 mmHg 77%
    23:00 +8°C° 0 mm 1 mps 679 mmHg 76%

    Day after tomorrow, 29 February, Saturday

    Time Temperature Precipitation Wind Pressure Humidity
    00:00 +8°C° 0 mm 1 mps 679 mmHg 75%
    01:00 +8°C° 0 mm 1 mps 679 mmHg 74%
    02:00 +7°C° 0 mm 2 mps 678 mmHg 72%
    03:00 +7°C° 0 mm 2 mps 678 mmHg 71%
    04:00 +7°C° 0 mm 2 mps 678 mmHg 70%
    05:00 +7°C° 0 mm 2 mps 678 mmHg 67%
    06:00 +8°C° 0 mm 2 mps 678 mmHg 64%
    07:00 +8°C° 0 mm 2 mps 678 mmHg 62%
    08:00 +10°C° 0 mm 2 mps 679 mmHg 54%
    09:00 +14°C° 0 mm 2 mps 679 mmHg 47%
    10:00 +16°C° 0 mm 2 mps 680 mmHg 40%
    11:00 +17°C° 0 mm 2 mps 680 mmHg 36%
    12:00 +19°C° 0 mm 1 mps 679 mmHg 33%
    13:00 +20°C° 0 mm 1 mps 679 mmHg 29%
    14:00 +20°C° 0 mm 1 mps 679 mmHg 30%
    15:00 +19°C° 0 mm 2 mps 679 mmHg 31%
    16:00 +19°C° 0 mm 2 mps 679 mmHg 31%
    17:00 +18°C° 0 mm 2 mps 679 mmHg 39%
    18:00 +16°C° 0 mm 1 mps 679 mmHg 46%
    19:00 +14°C° 0 mm 1 mps 679 mmHg 54%
    20:00 +13°C° 0 mm 1 mps 679 mmHg 54%
    21:00 +13°C° 0 mm 1 mps 679 mmHg 55%
    22:00 +12°C° 0 mm 1 mps 679 mmHg 55%
    23:00 +12°C° 0 mm 1 mps 679 mmHg 54%

    1 March, Sunday

    Time Temperature Precipitation Wind Pressure Humidity
    00:00 +12°C° 0 mm 1 mps 679 mmHg 53%
    01:00 +10°C° 0 mm 2 mps 679 mmHg 52%
    02:00 +10°C° 0 mm 2 mps 678 mmHg 51%
    03:00 +10°C° 0 mm 2 mps 678 mmHg 50%
    04:00 +9°C° 0 mm 2 mps 678 mmHg 49%
    05:00 +9°C° 0 mm 2 mps 678 mmHg 49%
    06:00 +9°C° 0 mm 2 mps 678 mmHg 48%
    07:00 +9°C° 0 mm 2 mps 678 mmHg 47%
    08:00 +13°C° 0 mm 2 mps 679 mmHg 41%
    09:00 +15°C° 0 mm 2 mps 679 mmHg 34%
    10:00 +18°C° 0 mm 2 mps 680 mmHg 27%
    11:00 +19°C° 0 mm 2 mps 680 mmHg 25%
    12:00 +20°C° 0 mm 2 mps 679 mmHg 23%
    13:00 +21°C° 0 mm 2 mps 679 mmHg 20%
    14:00 +21°C° 0 mm 2 mps 679 mmHg 21%
    15:00 +21°C° 0 mm 2 mps 679 mmHg 22%
    16:00 +21°C° 0 mm 2 mps 678 mmHg 23%
    17:00 +20°C° 0 mm 2 mps 678 mmHg 28%
    18:00 +18°C° 0 mm 2 mps 678 mmHg 33%
    19:00 +16°C° 0 mm 1 mps 679 mmHg 38%
    20:00 +15°C° 0 mm 1 mps 679 mmHg 39%
    21:00 +15°C° 0 mm 2 mps 679 mmHg 40%
    22:00 +15°C° 0 mm 2 mps 679 mmHg 41%
    23:00 +14°C° 0 mm 2 mps 678 mmHg 42%

    2 March, Monday

    Time Temperature Precipitation Wind Pressure Humidity
    00:00 +14°C° 0 mm 2 mps 678 mmHg 42%
    01:00 +12°C° 0 mm 3 mps 678 mmHg 43%
    02:00 +12°C° 0 mm 3 mps 678 mmHg 43%
    03:00 +12°C° 0 mm 3 mps 677 mmHg 42%
    04:00 +11°C° 0 mm 3 mps 677 mmHg 42%
    05:00 +11°C° 0 mm 3 mps 677 mmHg 42%
    06:00 +11°C° 0 mm 3 mps 677 mmHg 42%
    07:00 +11°C° 0 mm 3 mps 677 mmHg 43%
    08:00 +14°C° 0 mm 3 mps 678 mmHg 37%
    09:00 +17°C° 0 mm 3 mps 678 mmHg 32%
    10:00 +19°C° 0 mm 3 mps 678 mmHg 27%
    11:00 +21°C° 0 mm 3 mps 678 mmHg 24%
    12:00 +22°C° 0 mm 4 mps 678 mmHg 22%
    13:00 +23°C° 0 mm 4 mps 677 mmHg 20%
    14:00 +23°C° 0 mm 4 mps 677 mmHg 21%
    15:00 +24°C° 0 mm 3 mps 676 mmHg 22%
    16:00 +24°C° 0 mm 3 mps 676 mmHg 23%
    17:00 +22°C° 0 mm 3 mps 676 mmHg 27%
    18:00 +20°C° 0 mm 3 mps 676 mmHg 31%
    19:00 +18°C° 0 mm 3 mps 676 mmHg 34%
    20:00 +17°C° 0 mm 3 mps 676 mmHg 38%
    21:00 +17°C° 0 mm 3 mps 677 mmHg 41%
    22:00 +16°C° 0 mm 3 mps 677 mmHg 44%
    23:00 +13°C° 0.1 mm 4 mps 677 mmHg 57%

    3 March, Tuesday

    Time Temperature Precipitation Wind Pressure Humidity
    00:00 +11°C° 0.1 mm 4 mps 677 mmHg 70%
    01:00 +8°C° 0.1 mm 5 mps 677 mmHg 83%
    02:00 +8°C° 0.2 mm 4 mps 677 mmHg 83%
    03:00 +9°C° 0.2 mm 3 mps 678 mmHg 83%
    04:00 +9°C° 0.2 mm 2 mps 678 mmHg 84%
    05:00 +8°C° 0 mm 2 mps 678 mmHg 86%
    06:00 +8°C° 0 mm 2 mps 678 mmHg 88%
    07:00 +8°C° 0 mm 2 mps 679 mmHg 90%
    08:00 +7°C° 0 mm 3 mps 679 mmHg 90%
    09:00 +7°C° 0 mm 3 mps 679 mmHg 90%
    10:00 +7°C° 0 mm 3 mps 679 mmHg 90%
    11:00 +5°C° 0.1 mm 4 mps 679 mmHg 90%
    12:00 +4°C° 0.1 mm 4 mps 679 mmHg 90%
    13:00 +4°C° 0.1 mm 4 mps 678 mmHg 90%
    14:00 +4°C° 0.2 mm 4 mps 678 mmHg 90%
    15:00 +4°C° 0.2 mm 4 mps 678 mmHg 90%
    16:00 +3°C° 0.2 mm 4 mps 678 mmHg 90%
    17:00 +3°C° 0.1 mm 3 mps 679 mmHg 90%
    18:00 +4°C° 0.1 mm 2 mps 680 mmHg 91%
    19:00 +4°C° 0.1 mm 2 mps 680 mmHg 91%
    20:00 +4°C° 0.1 mm 2 mps 681 mmHg 91%
    21:00 +4°C° 0.1 mm 2 mps 681 mmHg 92%
    22:00 +4°C° 0.1 mm 2 mps 681 mmHg 92%
    23:00 +4°C° 0.2 mm 2 mps 681 mmHg 92%
    Show more